Weather History for Beaver Island, MI

Change the Weather History Date:

Wednesday, June 26, 2013

  Actual Average Record
Temperature  
Mean Temperature 64 °F -  
Max Temperature 77 °F 74 °F 89 °F (1983)
Min Temperature 51 °F 53 °F 39 °F (2004)
Degree Days  
Heating Degree Days 1    
Growing Degree Days 14 (Base 50)    
Moisture  
Dew Point 58 °F    
Average Humidity 82    
Maximum Humidity 100    
Minimum Humidity 57    
Precipitation  
Precipitation 0.00 in - - ()
Sea Level Pressure  
Sea Level Pressure 29.81 in    
Wind  
Wind Speed 3 mph (West)    
Max Wind Speed 14 mph    
Max Gust Speed 21 mph    
Visibility 9 miles    
Events Fog    
Averages and records for this station are not official NWS values.
T = Trace of Precipitation, MM = Missing Value Source: NWS Daily Summary

Daily Weather History Graph

Daily Weather History Graph

Search for Another Location

Airport:

Trip Planner

Search our weather history database for the weather conditions in past years. The results will help you decide how hot, cold, wet, or windy it might be!

Date:

Astronomy

Jun. 26, 2013 Rise Set
Actual Time 5:54 AM EDT 9:35 PM EDT
Civil Twilight 5:16 AM EDT 10:14 PM EDT
Nautical Twilight 4:25 AM EDT 11:05 PM EDT
Astronomical Twilight 3:15 AM EDT 12:14 AM EDT
Moon 11:44 PM EDT (6/26) 9:57 AM EDT (6/26)
Length of Visible Light 16h 57m
Length of Day
15h 41m
Waning Gibbous, 85% of the Moon is Illuminated
Jun 26
Waning Gibbous
Jun 30
Last Quarter
Jul 8
New
Jul 15
First Quarter
Jul 22
Full

Hourly Weather History & Observations

Time (EDT) Temp. Dew Point Humidity Pressure Visibility Wind Dir Wind Speed Gust Speed Precip Events Conditions
12:15 AM 54.0 °F 53.8 °F 99% 29.84 in 2.5 mi Calm Calm - N/A   Clear
12:35 AM 54.1 °F 54.1 °F 100% 29.84 in 7.0 mi Calm Calm - N/A   Clear
12:54 AM 52.9 °F 52.9 °F 100% 29.83 in 7.0 mi Calm Calm - N/A   Clear
1:15 AM 53.6 °F 53.6 °F 100% 29.83 in 7.0 mi Calm Calm - N/A   Clear
1:35 AM 53.2 °F 53.2 °F 100% 29.83 in 10.0 mi Calm Calm - N/A   Clear
1:55 AM 52.3 °F 52.3 °F 100% 29.82 in 4.0 mi Calm Calm - N/A   Clear
2:15 AM 52.3 °F 52.3 °F 100% 29.83 in 0.8 mi Calm Calm - N/A   Mist
2:35 AM 51.8 °F 51.8 °F 100% 29.83 in 0.5 mi Calm Calm - N/A Fog Fog
2:55 AM 51.6 °F 51.6 °F 100% 29.83 in 10.0 mi Calm Calm - N/A   Clear
3:15 AM 52.2 °F 52.2 °F 100% 29.82 in 10.0 mi Calm Calm - N/A   Clear
3:35 AM 52.3 °F 52.3 °F 100% 29.82 in 10.0 mi Calm Calm - N/A   Clear
3:55 AM 52.2 °F 52.2 °F 100% 29.82 in 5.0 mi West 4.6 mph - N/A   Clear
4:15 AM 55.4 °F 55.4 °F 100% 29.82 in 10.0 mi Calm Calm - N/A   Clear
4:34 AM 55.4 °F 55.4 °F 100% 29.81 in 10.0 mi Calm Calm - N/A   Clear
4:55 AM 53.6 °F 53.6 °F 100% 29.80 in 4.0 mi Calm Calm - N/A   Clear
5:15 AM 54.1 °F 54.1 °F 100% 29.80 in 7.0 mi WSW 4.6 mph - N/A   Clear
5:35 AM 55.4 °F 55.4 °F 100% 29.81 in 3.0 mi West 4.6 mph - N/A   Mostly Cloudy
5:55 AM 55.4 °F 55.4 °F 100% 29.80 in 0.5 mi WSW 3.5 mph - N/A Fog Fog
6:15 AM 55.6 °F 55.6 °F 100% 29.82 in 0.2 mi West 4.6 mph - N/A Fog Fog
6:35 AM 56.1 °F 56.1 °F 100% 29.82 in 0.5 mi SW 4.6 mph - N/A Fog Fog
6:55 AM 58.1 °F 58.1 °F 100% 29.81 in 10.0 mi SW 5.8 mph - N/A   Scattered Clouds
7:15 AM 59.4 °F 59.4 °F 100% 29.80 in 10.0 mi SW 5.8 mph - N/A   Clear
7:35 AM 61.0 °F 60.1 °F 97% 29.81 in 10.0 mi SW 4.6 mph - N/A   Clear
7:55 AM 62.1 °F 60.4 °F 94% 29.82 in 10.0 mi WSW 5.8 mph - N/A   Clear
8:14 AM 63.0 °F 60.6 °F 92% 29.83 in 10.0 mi WSW 4.6 mph - N/A   Clear
8:35 AM 64.4 °F 60.4 °F 87% 29.83 in 10.0 mi SW 3.5 mph - N/A   Clear
8:55 AM 66.4 °F 60.4 °F 81% 29.82 in 10.0 mi SW 4.6 mph - N/A   Clear
9:15 AM 68.2 °F 60.6 °F 77% 29.82 in 10.0 mi WSW 4.6 mph - N/A   Clear
9:35 AM 70.2 °F 60.4 °F 71% 29.82 in 10.0 mi Calm Calm - N/A   Clear
9:55 AM 71.4 °F 60.6 °F 69% 29.83 in 10.0 mi WNW 4.6 mph - N/A   Clear
10:15 AM 71.4 °F 60.8 °F 69% 29.83 in 10.0 mi WSW 4.6 mph - N/A   Clear
10:35 AM 72.9 °F 61.0 °F 66% 29.82 in 10.0 mi WSW 5.8 mph - N/A   Clear
10:54 AM 73.9 °F 59.9 °F 61% 29.83 in 10.0 mi West 5.8 mph - N/A   Clear
11:15 AM 73.0 °F 60.6 °F 65% 29.82 in 10.0 mi WSW 6.9 mph - N/A   Clear
11:34 AM 74.3 °F 59.5 °F 60% 29.82 in 10.0 mi West 5.8 mph - N/A   Clear
11:55 AM 74.8 °F 58.6 °F 57% 29.81 in 10.0 mi Calm Calm - N/A   Clear
12:15 PM 76.8 °F 61.2 °F 58% 29.81 in 10.0 mi West 6.9 mph - N/A   Clear
12:35 PM 73.2 °F 60.1 °F 63% 29.81 in 10.0 mi WNW 3.5 mph - N/A   Clear
12:55 PM 74.8 °F 61.2 °F 62% 29.81 in 10.0 mi North 3.5 mph - N/A   Clear
1:14 PM 74.5 °F 61.9 °F 65% 29.81 in 10.0 mi NNE 3.5 mph - N/A   Clear
1:35 PM 72.7 °F 60.8 °F 66% 29.82 in 10.0 mi WNW 4.6 mph - N/A   Clear
1:55 PM 73.4 °F 61.0 °F 65% 29.81 in 10.0 mi North 3.5 mph - N/A   Clear
2:15 PM 75.2 °F 61.7 °F 63% 29.80 in 10.0 mi Calm Calm - N/A   Clear
2:35 PM 75.4 °F 60.8 °F 60% 29.80 in 10.0 mi ENE 4.6 mph - N/A   Clear
2:55 PM 74.7 °F 61.2 °F 63% 29.80 in 10.0 mi West 4.6 mph - N/A   Clear
3:15 PM 76.1 °F 61.7 °F 61% 29.79 in 10.0 mi West 6.9 mph - N/A   Clear
3:35 PM 73.0 °F 61.0 °F 66% 29.78 in 10.0 mi Calm Calm - N/A   Clear
3:55 PM 77.0 °F 61.5 °F 59% 29.78 in 10.0 mi Calm Calm - N/A   Clear
4:15 PM 75.4 °F 60.4 °F 60% 29.78 in 10.0 mi West 6.9 mph - N/A   Clear
4:34 PM 72.7 °F 59.4 °F 63% 29.78 in 10.0 mi West 8.1 mph - N/A   Clear
4:55 PM 70.7 °F 59.9 °F 69% 29.78 in 10.0 mi West 5.8 mph - N/A   Clear
5:14 PM 72.9 °F 60.6 °F 65% 29.78 in 10.0 mi West 5.8 mph - N/A   Clear
5:35 PM 70.9 °F 60.1 °F 69% 29.79 in 10.0 mi WNW 3.5 mph - N/A   Clear
5:55 PM 67.3 °F 60.1 °F 78% 29.79 in 10.0 mi NW 6.9 mph - N/A   Clear
6:14 PM 67.3 °F 60.8 °F 80% 29.78 in 10.0 mi NNW 4.6 mph - N/A   Clear
6:35 PM 70.0 °F 61.0 °F 73% 29.79 in 10.0 mi West 5.8 mph - N/A   Clear
6:55 PM 70.9 °F 60.6 °F 70% 29.78 in 10.0 mi Calm Calm - N/A   Clear
7:15 PM 70.5 °F 60.1 °F 69% 29.78 in 10.0 mi Calm Calm - N/A   Clear
7:35 PM 70.7 °F 60.3 °F 69% 29.76 in 10.0 mi Calm Calm - N/A   Clear
7:54 PM 70.3 °F 60.8 °F 72% 29.75 in 10.0 mi East 3.5 mph - N/A   Clear
8:15 PM 69.8 °F 60.8 °F 73% 29.75 in 10.0 mi Calm Calm - N/A   Clear
8:35 PM 69.4 °F 61.9 °F 77% 29.77 in 10.0 mi West 5.8 mph - N/A   Clear
8:54 PM 63.3 °F 59.7 °F 88% 29.78 in 10.0 mi WSW 8.1 mph - N/A   Clear
9:15 PM 62.8 °F 59.7 °F 90% 29.79 in 10.0 mi WSW 4.6 mph - N/A   Clear
9:35 PM 62.6 °F 59.5 °F 90% 29.78 in 10.0 mi West 4.6 mph - N/A   Clear
9:55 PM 62.6 °F 59.7 °F 90% 29.79 in 10.0 mi West 4.6 mph - N/A   Clear
10:15 PM 61.9 °F 59.5 °F 92% 29.81 in 10.0 mi WNW 8.1 mph - N/A   Scattered Clouds
10:34 PM 61.7 °F 59.4 °F 92% 29.80 in 10.0 mi SSW 3.5 mph - N/A   Mostly Cloudy
10:55 PM 62.2 °F 59.9 °F 92% 29.80 in 10.0 mi WSW 4.6 mph - N/A   Overcast
11:15 PM 62.2 °F 59.7 °F 91% 29.80 in 10.0 mi WSW 3.5 mph - N/A   Overcast
11:35 PM 62.6 °F 59.9 °F 91% 29.81 in 10.0 mi WSW 13.8 mph 20.7 mph N/A   Overcast
11:55 PM 61.3 °F 58.1 °F 89% 29.80 in 10.0 mi West 6.9 mph - N/A   Mostly Cloudy